| time (UTC) | temp F | wind direction | speed knots | gust knots | rain 1hr in | rain 24hr in | rain mn in | humidity % | barometer mb |
| 20260507180512 | 63 | 210 | 6.1 | 16.5 | 0.00 | 0.01 | 0.00 | 56 | 1012.9 |
| 20260507175711 | 63 | 209 | 6.1 | 13.9 | 0.00 | 0.01 | 0.00 | 55 | 1013.1 |
| 20260507174912 | 62 | 214 | 6.1 | 13.0 | 0.00 | 0.01 | 0.00 | 55 | 1013.3 |
| 20260507174112 | 62 | 206 | 7.0 | 14.8 | 0.00 | 0.01 | 0.00 | 55 | 1013.4 |
| 20260507173311 | 62 | 202 | 7.8 | 16.5 | 0.00 | 0.01 | 0.00 | 54 | 1013.5 |
| 20260507172512 | 62 | 208 | 7.0 | 15.6 | 0.00 | 0.01 | 0.00 | 55 | 1013.5 |
| 20260507171711 | 63 | 202 | 7.8 | 16.5 | 0.00 | 0.01 | 0.00 | 55 | 1013.6 |
| 20260507170911 | 63 | 202 | 6.1 | 15.6 | 0.00 | 0.01 | 0.00 | 55 | 1013.8 |
| 20260507170112 | 63 | 207 | 5.2 | 20.0 | 0.00 | 0.01 | 0.00 | 57 | 1013.9 |
| 20260507165311 | 62 | 209 | 6.1 | 20.0 | 0.00 | 0.01 | 0.00 | 54 | 1014.1 |
| 20260507164511 | 62 | 203 | 6.1 | 14.8 | 0.00 | 0.01 | 0.00 | 56 | 1014.1 |
| 20260507163712 | 61 | 210 | 6.1 | 17.4 | 0.00 | 0.01 | 0.00 | 57 | 1014.2 |
| 20260507162911 | 62 | 210 | 4.3 | 12.2 | 0.00 | 0.01 | 0.00 | 56 | 1014.2 |
| 20260507162112 | 61 | 211 | 5.2 | 12.2 | 0.00 | 0.01 | 0.00 | 57 | 1014.3 |
| 20260507161312 | 61 | 214 | 6.1 | 13.9 | 0.00 | 0.01 | 0.00 | 57 | 1014.4 |
| 20260507160512 | 61 | 208 | 5.2 | 12.2 | 0.00 | 0.01 | 0.00 | 59 | 1014.4 |
| 20260507155711 | 60 | 214 | 5.2 | 16.5 | 0.00 | 0.01 | 0.00 | 59 | 1014.4 |
| 20260507154912 | 60 | 215 | 4.3 | 16.5 | 0.00 | 0.01 | 0.00 | 58 | 1014.4 |
| 20260507154111 | 60 | 205 | 5.2 | 15.6 | 0.00 | 0.01 | 0.00 | 59 | 1014.7 |
| 20260507153311 | 60 | 209 | 4.3 | 13.0 | 0.00 | 0.01 | 0.00 | 61 | 1014.6 |
| 20260507152512 | 60 | 217 | 3.5 | 12.2 | 0.00 | 0.01 | 0.00 | 60 | 1014.7 |
| 20260507151711 | 60 | 213 | 3.5 | 9.6 | 0.00 | 0.01 | 0.00 | 62 | 1014.7 |
| 20260507150910 | 59 | 241 | 3.5 | 13.0 | 0.00 | 0.01 | 0.00 | 61 | 1015.0 |
| 20260507150112 | 59 | 225 | 3.5 | 9.6 | 0.00 | 0.02 | 0.00 | 61 | 1015.1 |
| 20260507145312 | 58 | 228 | 2.6 | 9.6 | 0.00 | 0.02 | 0.00 | 63 | 1015.2 |
| 20260507144511 | 58 | 211 | 3.5 | 7.0 | 0.00 | 0.02 | 0.00 | 63 | 1015.2 |
| 20260507143711 | 57 | 224 | 2.6 | 6.1 | 0.00 | 0.02 | 0.00 | 64 | 1015.2 |
| 20260507142912 | 57 | 224 | 2.6 | 8.7 | 0.00 | 0.02 | 0.00 | 65 | 1015.3 |
| 20260507142111 | 56 | 226 | 1.7 | 6.1 | 0.00 | 0.02 | 0.00 | 66 | 1015.1 |
| 20260507141311 | 56 | 232 | 1.7 | 6.1 | 0.00 | 0.02 | 0.00 | 64 | 1015.1 |
| 20260507140512 | 55 | 201 | 2.6 | 8.7 | 0.00 | 0.02 | 0.00 | 67 | 1015.3 |
| 20260507135712 | 55 | 203 | 3.5 | 7.0 | 0.00 | 0.02 | 0.00 | 67 | 1015.4 |
| 20260507134912 | 54 | 207 | 2.6 | 7.8 | 0.00 | 0.02 | 0.00 | 68 | 1015.3 |
| 20260507134111 | 54 | 205 | 2.6 | 8.7 | 0.00 | 0.02 | 0.00 | 69 | 1015.3 |
| 20260507133312 | 53 | 196 | 3.5 | 9.6 | 0.00 | 0.02 | 0.00 | 69 | 1015.3 |
| 20260507132511 | 52 | 189 | 0.9 | 4.3 | 0.00 | 0.02 | 0.00 | 72 | 1015.3 |
| 20260507131711 | 52 | 183 | 1.7 | 5.2 | 0.00 | 0.02 | 0.00 | 72 | 1015.3 |
| 20260507130912 | 51 | 193 | 2.6 | 6.1 | 0.00 | 0.02 | 0.00 | 73 | 1015.5 |
| 20260507130111 | 50 | 191 | 2.6 | 6.1 | 0.00 | 0.02 | 0.00 | 73 | 1015.6 |
| 20260507125310 | 50 | 195 | 2.6 | 6.1 | 0.00 | 0.02 | 0.00 | 73 | 1015.7 |
| 20260507124512 | 50 | 189 | 1.7 | 6.1 | 0.00 | 0.02 | 0.00 | 74 | 1015.7 |
| 20260507123711 | 49 | 189 | 1.7 | 5.2 | 0.00 | 0.02 | 0.00 | 74 | 1015.7 |
| 20260507122912 | 48 | 195 | 2.6 | 5.2 | 0.00 | 0.02 | 0.00 | 74 | 1015.7 |
| 20260507122111 | 48 | 191 | 2.6 | 5.2 | 0.00 | 0.02 | 0.00 | 74 | 1015.6 |
| 20260507121312 | 47 | 189 | 2.6 | 4.3 | 0.00 | 0.02 | 0.00 | 74 | 1015.6 |
| 20260507120511 | 47 | 189 | 2.6 | 5.2 | 0.00 | 0.02 | 0.00 | 74 | 1015.7 |
| 20260507115711 | 47 | 189 | 2.6 | 4.3 | 0.00 | 0.02 | 0.00 | 74 | 1015.5 |
| 20260507114912 | 47 | 189 | 2.6 | 4.3 | 0.00 | 0.02 | 0.00 | 73 | 1015.4 |
| 20260507114111 | 47 | 190 | 1.7 | 4.3 | 0.00 | 0.03 | 0.00 | 72 | 1015.4 |
| 20260507113312 | 47 | 191 | 1.7 | 3.5 | 0.00 | 0.03 | 0.00 | 72 | 1015.4 |
| 20260507112512 | 47 | 191 | 1.7 | 3.5 | 0.00 | 0.03 | 0.00 | 71 | 1015.4 |
| 20260507111711 | 47 | 191 | 1.7 | 3.5 | 0.00 | 0.03 | 0.00 | 70 | 1015.4 |
| 20260507110910 | 47 | 191 | 1.7 | 3.5 | 0.00 | 0.03 | 0.00 | 70 | 1015.3 |
| 20260507110112 | 47 | 191 | 1.7 | 3.5 | 0.00 | 0.03 | 0.00 | 69 | 1015.2 |
| 20260507105311 | 47 | 191 | 1.7 | 3.5 | 0.00 | 0.03 | 0.00 | 68 | 1015.2 |
| 20260507104512 | 47 | 191 | 1.7 | 3.5 | 0.00 | 0.03 | 0.00 | 68 | 1015.2 |
| 20260507103712 | 47 | 191 | 1.7 | 3.5 | 0.00 | 0.03 | 0.00 | 67 | 1015.3 |
| 20260507102911 | 47 | 191 | 1.7 | 3.5 | 0.00 | 0.03 | 0.00 | 67 | 1015.4 |
| 20260507102111 | 47 | 192 | 1.7 | 3.5 | 0.00 | 0.03 | 0.00 | 66 | 1015.4 |
| 20260507101311 | 47 | 192 | 1.7 | 4.3 | 0.00 | 0.03 | 0.00 | 66 | 1015.5 |
| 20260507100512 | 48 | 192 | 1.7 | 4.3 | 0.00 | 0.03 | 0.00 | 65 | 1015.4 |
| 20260507095712 | 48 | 193 | 1.7 | 3.5 | 0.00 | 0.03 | 0.00 | 64 | 1015.5 |
| 20260507094912 | 48 | 194 | 1.7 | 3.5 | 0.00 | 0.03 | 0.00 | 63 | 1015.5 |
| 20260507094111 | 48 | 194 | 1.7 | 4.3 | 0.00 | 0.03 | 0.00 | 62 | 1015.5 |
| 20260507093312 | 48 | 195 | 1.7 | 4.3 | 0.00 | 0.03 | 0.00 | 61 | 1015.5 |
| 20260507092512 | 48 | 195 | 1.7 | 4.3 | 0.00 | 0.03 | 0.00 | 61 | 1015.5 |
| 20260507091711 | 49 | 195 | 1.7 | 3.5 | 0.00 | 0.03 | 0.00 | 61 | 1015.6 |
| 20260507090912 | 49 | 197 | 1.7 | 3.5 | 0.00 | 0.03 | 0.00 | 60 | 1015.6 |
| 20260507090112 | 49 | 204 | 1.7 | 3.5 | 0.00 | 0.03 | 0.00 | 59 | 1015.6 |
| 20260507085311 | 49 | 206 | 1.7 | 3.5 | 0.00 | 0.03 | 0.00 | 58 | 1015.6 |
| 20260507084512 | 50 | 204 | 1.7 | 3.5 | 0.00 | 0.03 | 0.00 | 58 | 1015.7 |
| 20260507083711 | 50 | 205 | 1.7 | 4.3 | 0.00 | 0.03 | 0.00 | 57 | 1015.8 |
| 20260507082912 | 50 | 209 | 1.7 | 3.5 | 0.00 | 0.03 | 0.00 | 56 | 1015.9 |
| 20260507082112 | 50 | 208 | 1.7 | 3.5 | 0.00 | 0.03 | 0.00 | 55 | 1015.9 |
| 20260507081311 | 50 | 208 | 1.7 | 3.5 | 0.00 | 0.03 | 0.00 | 55 | 1015.9 |
| 20260507080512 | 50 | 206 | 1.7 | 3.5 | 0.00 | 0.03 | 0.00 | 55 | 1015.7 |
| 20260507075712 | 50 | 197 | 1.7 | 4.3 | 0.00 | 0.03 | 0.00 | 55 | 1015.7 |
| 20260507074911 | 50 | 194 | 1.7 | 3.5 | 0.00 | 0.03 | 0.00 | 57 | 1015.6 |
| 20260507074112 | 50 | 194 | 1.7 | 3.5 | 0.00 | 0.03 | 0.00 | 57 | 1015.7 |
| 20260507073312 | 50 | 194 | 1.7 | 3.5 | 0.00 | 0.03 | 0.00 | 57 | 1015.8 |
| 20260507072511 | 50 | 194 | 0.9 | 2.6 | 0.00 | 0.05 | 0.00 | 56 | 1015.8 |
| 20260507071712 | 50 | 194 | 1.7 | 3.5 | 0.00 | 0.05 | 0.00 | 56 | 1016.1 |
| 20260507070911 | 50 | 194 | 0.9 | 3.5 | 0.00 | 0.05 | 0.00 | 56 | 1016.1 |
| 20260507070112 | 51 | 194 | 1.7 | 2.6 | 0.00 | 0.05 | 0.00 | 55 | 1016.3 |
| 20260507065312 | 51 | 194 | 0.9 | 2.6 | 0.00 | 0.05 | 0.00 | 54 | 1016.3 |
| 20260507064512 | 51 | 196 | 1.7 | 3.5 | 0.00 | 0.05 | 0.00 | 54 | 1016.4 |
| 20260507063712 | 52 | 197 | 0.9 | 2.6 | 0.00 | 0.05 | 0.00 | 53 | 1016.5 |
| 20260507062911 | 52 | 197 | 1.7 | 2.6 | 0.00 | 0.05 | 0.00 | 52 | 1016.5 |
| 20260507062111 | 52 | 196 | 1.7 | 3.5 | 0.00 | 0.05 | 0.00 | 52 | 1016.5 |
| 20260507061312 | 52 | 194 | 0.9 | 3.5 | 0.00 | 0.05 | 0.00 | 51 | 1016.5 |
| 20260507060512 | 52 | 192 | 0.9 | 4.3 | 0.00 | 0.05 | 0.00 | 51 | 1016.5 |
| 20260507055711 | 52 | 191 | 0.9 | 2.6 | 0.00 | 0.05 | 0.00 | 52 | 1016.5 |
| 20260507054912 | 52 | 192 | 1.7 | 3.5 | 0.00 | 0.05 | 0.00 | 52 | 1016.5 |
| 20260507054112 | 52 | 192 | 0.9 | 3.5 | 0.00 | 0.05 | 0.00 | 53 | 1016.5 |
| 20260507053312 | 52 | 193 | 0.9 | 3.5 | 0.00 | 0.05 | 0.00 | 53 | 1016.5 |
| 20260507052511 | 51 | 195 | 1.7 | 3.5 | 0.00 | 0.05 | 0.00 | 54 | 1016.4 |
| 20260507051712 | 51 | 203 | 1.7 | 3.5 | 0.00 | 0.05 | 0.00 | 55 | 1016.6 |
| 20260507050911 | 52 | 225 | 1.7 | 3.5 | 0.00 | 0.05 | 0.00 | 55 | 1016.4 |
| 20260507050112 | 51 | 228 | 1.7 | 3.5 | 0.00 | 0.05 | 0.00 | 54 | 1016.4 |
| 20260507045312 | 51 | 228 | 1.7 | 3.5 | 0.00 | 0.05 | 0.05 | 54 | 1016.5 |
| 20260507044511 | 51 | 242 | 1.7 | 3.5 | 0.00 | 0.05 | 0.05 | 54 | 1016.5 |
| 20260507043713 | 51 | 250 | 1.7 | 2.6 | 0.00 | 0.05 | 0.05 | 54 | 1016.5 |
| 20260507042912 | 50 | 252 | 0.9 | 2.6 | 0.00 | 0.05 | 0.05 | 54 | 1016.4 |
| 20260507042111 | 50 | 0 | 0.0 | 0.0 | 0.00 | 0.05 | 0.05 | 56 | 1016.4 |
| 20260507041312 | 51 | 0 | 0.0 | 0.0 | 0.00 | 0.05 | 0.05 | 54 | 1016.6 |
| 20260507040512 | 52 | 0 | 0.0 | 0.0 | 0.00 | 0.05 | 0.03 | 50 | 1016.7 |
| 20260507035711 | 52 | 0 | 0.0 | 0.0 | 0.00 | 0.05 | 0.03 | 50 | 1016.7 |
| 20260507034912 | 51 | 0 | 0.0 | 0.0 | 0.00 | 0.05 | 0.03 | 50 | 1016.9 |
| 20260507034111 | 51 | 0 | 0.0 | 0.0 | 0.00 | 0.05 | 0.03 | 52 | 1017.0 |
| 20260507033311 | 51 | 0 | 0.0 | 0.0 | 0.00 | 0.05 | 0.03 | 54 | 1016.8 |
| 20260507032512 | 51 | 0 | 0.0 | 0.0 | 0.00 | 0.05 | 0.03 | 57 | 1016.7 |
| 20260507031711 | 51 | 0 | 0.0 | 0.0 | 0.00 | 0.05 | 0.03 | 50 | 1016.6 |
| 20260507030912 | 52 | 0 | 0.0 | 0.0 | 0.00 | 0.05 | 0.03 | 49 | 1016.7 |
| 20260507030111 | 52 | 0 | 0.0 | 0.0 | 0.00 | 0.05 | 0.03 | 50 | 1016.6 |
| 20260507025312 | 53 | 0 | 0.0 | 0.0 | 0.00 | 0.05 | 0.03 | 49 | 1016.7 |
| 20260507024511 | 52 | 0 | 0.0 | 0.0 | 0.00 | 0.05 | 0.03 | 49 | 1016.6 |
| 20260507023711 | 52 | 0 | 0.0 | 0.0 | 0.00 | 0.05 | 0.03 | 48 | 1016.4 |
| 20260507022912 | 52 | 0 | 0.0 | 0.0 | 0.00 | 0.05 | 0.03 | 50 | 1016.5 |
| 20260507022111 | 53 | 0 | 0.0 | 0.0 | 0.00 | 0.05 | 0.03 | 53 | 1016.4 |
| 20260507021312 | 53 | 0 | 0.0 | 0.0 | 0.00 | 0.05 | 0.03 | 47 | 1016.3 |
| 20260507020512 | 54 | 0 | 0.0 | 0.0 | 0.00 | 0.05 | 0.03 | 47 | 1016.2 |
| 20260507015712 | 54 | 0 | 0.0 | 0.0 | 0.00 | 0.05 | 0.03 | 44 | 1016.1 |
| 20260507014911 | 54 | 0 | 0.0 | 0.0 | 0.00 | 0.05 | 0.03 | 45 | 1016.1 |
| 20260507014111 | 54 | 0 | 0.0 | 0.0 | 0.00 | 0.05 | 0.03 | 45 | 1016.1 |
| 20260507013312 | 54 | 0 | 0.0 | 0.0 | 0.00 | 0.05 | 0.03 | 46 | 1016.1 |
| 20260507012511 | 55 | 0 | 0.0 | 0.0 | 0.00 | 0.05 | 0.03 | 45 | 1016.1 |
| 20260507011712 | 56 | 0 | 0.0 | 0.0 | 0.00 | 0.05 | 0.03 | 44 | 1016.0 |
| 20260507010911 | 57 | 0 | 0.0 | 0.0 | 0.00 | 0.05 | 0.03 | 43 | 1015.9 |
| 20260507010111 | 58 | 0 | 0.0 | 0.0 | 0.00 | 0.05 | 0.03 | 40 | 1015.9 |
| 20260507005312 | 58 | 0 | 0.0 | 0.0 | 0.00 | 0.05 | 0.03 | 39 | 1016.0 |
| 20260507004511 | 58 | 295 | 0.0 | 2.6 | 0.00 | 0.05 | 0.03 | 38 | 1015.9 |
| 20260507003712 | 59 | 307 | 0.9 | 5.2 | 0.00 | 0.05 | 0.03 | 36 | 1015.9 |
| 20260507002912 | 59 | 307 | 0.9 | 5.2 | 0.00 | 0.05 | 0.03 | 36 | 1015.9 |
| 20260507002111 | 59 | 312 | 0.9 | 6.1 | 0.00 | 0.05 | 0.03 | 37 | 1015.9 |
| 20260507001312 | 59 | 325 | 1.7 | 6.1 | 0.00 | 0.07 | 0.03 | 36 | 1015.7 |
| 20260507000511 | 59 | 332 | 1.7 | 7.8 | 0.00 | 0.07 | 0.03 | 36 | 1015.8 |
| 20260506235712 | 59 | 1 | 1.7 | 7.8 | 0.00 | 0.07 | 0.03 | 35 | 1015.9 |
| 20260506234911 | 60 | 326 | 0.9 | 6.1 | 0.00 | 0.07 | 0.03 | 36 | 1015.9 |
| 20260506234111 | 60 | 315 | 1.7 | 6.1 | 0.00 | 0.07 | 0.03 | 36 | 1016.0 |
| 20260506233312 | 59 | 329 | 1.7 | 6.1 | 0.00 | 0.07 | 0.03 | 35 | 1015.9 |
| 20260506232511 | 60 | 339 | 1.7 | 8.7 | 0.00 | 0.07 | 0.03 | 35 | 1016.0 |
| 20260506231712 | 60 | 355 | 0.9 | 7.8 | 0.00 | 0.07 | 0.03 | 35 | 1016.0 |
| 20260506230911 | 60 | 305 | 1.7 | 9.6 | 0.00 | 0.07 | 0.03 | 36 | 1016.0 |
| 20260506230112 | 60 | 339 | 2.6 | 12.2 | 0.00 | 0.07 | 0.03 | 35 | 1016.0 |
| 20260506225311 | 60 | 330 | 2.6 | 12.2 | 0.00 | 0.07 | 0.03 | 34 | 1016.0 |
| 20260506224511 | 60 | 294 | 2.6 | 8.7 | 0.00 | 0.07 | 0.03 | 35 | 1015.9 |
| 20260506223711 | 60 | 304 | 2.6 | 10.4 | 0.00 | 0.07 | 0.03 | 34 | 1016.0 |
| 20260506222912 | 61 | 354 | 0.9 | 4.3 | 0.00 | 0.07 | 0.03 | 34 | 1016.0 |
| 20260506222111 | 61 | 11 | 1.7 | 6.1 | 0.00 | 0.07 | 0.03 | 36 | 1016.0 |
| 20260506221312 | 61 | 28 | 1.7 | 6.1 | 0.00 | 0.07 | 0.03 | 34 | 1016.1 |
| 20260506220511 | 61 | 7 | 2.6 | 7.8 | 0.00 | 0.07 | 0.03 | 34 | 1016.1 |
| 20260506215712 | 61 | 334 | 2.6 | 12.2 | 0.00 | 0.07 | 0.03 | 34 | 1016.1 |
| 20260506214911 | 61 | 310 | 2.6 | 7.8 | 0.00 | 0.07 | 0.03 | 35 | 1016.1 |
| 20260506214112 | 61 | 315 | 2.6 | 9.6 | 0.00 | 0.07 | 0.03 | 36 | 1016.2 |
| 20260506213311 | 61 | 326 | 2.6 | 9.6 | 0.00 | 0.07 | 0.03 | 35 | 1016.4 |
| 20260506212511 | 61 | 334 | 2.6 | 8.7 | 0.00 | 0.07 | 0.03 | 37 | 1016.5 |
| 20260506211712 | 61 | 24 | 2.6 | 8.7 | 0.00 | 0.07 | 0.03 | 37 | 1016.4 |
| 20260506210912 | 61 | 23 | 0.9 | 8.7 | 0.00 | 0.07 | 0.03 | 34 | 1016.5 |
| 20260506210112 | 61 | 314 | 2.6 | 10.4 | 0.00 | 0.07 | 0.03 | 36 | 1016.6 |
| 20260506205311 | 61 | 333 | 1.7 | 9.6 | 0.00 | 0.07 | 0.03 | 36 | 1016.8 |
| 20260506204512 | 61 | 354 | 1.7 | 6.1 | 0.00 | 0.09 | 0.03 | 37 | 1016.8 |
| 20260506203711 | 60 | 309 | 2.6 | 6.1 | 0.00 | 0.09 | 0.03 | 36 | 1016.9 |
| 20260506202912 | 60 | 319 | 1.7 | 6.1 | 0.00 | 0.09 | 0.03 | 36 | 1017.1 |
| 20260506202111 | 60 | 309 | 2.6 | 13.0 | 0.00 | 0.09 | 0.03 | 37 | 1017.3 |
| 20260506201312 | 59 | 343 | 2.6 | 12.2 | 0.00 | 0.09 | 0.03 | 36 | 1017.2 |
| 20260506200511 | 59 | 307 | 4.3 | 14.8 | 0.00 | 0.09 | 0.03 | 36 | 1017.3 |
| 20260506195711 | 59 | 299 | 0.9 | 14.8 | 0.00 | 0.09 | 0.03 | 38 | 1017.3 |
| 20260506194912 | 59 | 337 | 1.7 | 9.6 | 0.00 | 0.07 | 0.02 | 35 | 1017.5 |
| 20260506194111 | 59 | 355 | 2.6 | 9.6 | 0.00 | 0.07 | 0.02 | 36 | 1017.6 |
| 20260506193312 | 59 | 341 | 1.7 | 7.8 | 0.00 | 0.07 | 0.02 | 36 | 1017.6 |
| 20260506192512 | 59 | 330 | 1.7 | 7.8 | 0.00 | 0.07 | 0.02 | 40 | 1017.6 |
| 20260506191711 | 59 | 314 | 1.7 | 8.7 | 0.00 | 0.07 | 0.02 | 39 | 1017.6 |
| 20260506190912 | 59 | 303 | 1.7 | 9.6 | 0.00 | 0.09 | 0.02 | 35 | 1017.8 |
| 20260506190112 | 59 | 320 | 1.7 | 7.8 | 0.00 | 0.09 | 0.02 | 39 | 1017.6 |
| 20260506185311 | 59 | 7 | 1.7 | 7.8 | 0.00 | 0.09 | 0.02 | 36 | 1017.7 |
| 20260506184511 | 59 | 55 | 1.7 | 7.8 | 0.00 | 0.09 | 0.02 | 36 | 1017.9 |
| 20260506183712 | 58 | 346 | 0.9 | 6.1 | 0.00 | 0.09 | 0.02 | 38 | 1017.8 |
| 20260506182911 | 58 | 359 | 0.9 | 6.1 | 0.00 | 0.09 | 0.02 | 40 | 1018.0 |
| 20260506182112 | 57 | 38 | 0.9 | 5.2 | 0.00 | 0.09 | 0.02 | 42 | 1018.0 |
| 20260506181312 | 56 | 353 | 0.9 | 5.2 | 0.00 | 0.09 | 0.02 | 38 | 1018.3 |